Flag for Canada Weather past 2 weeks in Fort Smith, Northwest Territories, Canada

36 °F

Partly sunny.

Feels Like: 33 °F
Forecast: 32 / 45 °F
Wind: 3 mph from South

Location: Fort Smith

Current Time: Oct 6, 2015 at 11:12:32 AM

Latest Report: Oct 6, 2015 at 10:00 AM

Visibility: 15 mi

Pressure: 30.16 "Hg

Humidity: 87%

Dew point: 32 °F

Location of Fort SmithLocation

Historic Weather in Fort Smith — Graph


Fort Smith temperature yesterday

Maximum temperature yesterday: 41 °F (at 3:00 PM)
Minimum temperature yesterday: 32 °F (at 4:00 AM)
Average temperature yesterday: 37 °F

Past Weeks' High & Low Weather Summary

High72 °F (Sep 30, 4:00 PM)100% (Oct 2, 7:00 AM)30.57 "Hg (Oct 2, 7:00 AM)
Low27 °F (Sep 22, 6:00 AM)21% (Oct 1, 5:00 PM)29.44 "Hg (Sep 26, 3:00 PM)
Average43 °F73%29.96 "Hg
* Reported Sep 21 10:00 AM — Oct 6 10:00 AM, Fort Smith, Weather by CustomWeather, © 2015

Note: Actual official high and low records may vary slightly from our data, if they occured in-between our weather recording intervals... More about our weather records


Fort Smith weather history for previous 24 hours

Time TempWeatherWind HumidityBarometerVisibility
10:00 AM
Tue, Oct 6
36 °FPartly sunny.3 mph87%30.16 "Hg15 mi
9:00 AM34 °FPartly sunny.2 mph87%30.16 "Hg15 mi
8:00 AM32 °FPassing clouds.5 mph93%30.15 "Hg15 mi
7:00 AM32 °FPassing clouds.2 mph93%30.15 "Hg15 mi
6:00 AM32 °FOvercast.3 mph93%30.16 "Hg15 mi
5:00 AM32 °FOvercast.3 mph93%30.15 "Hg15 mi
4:00 AM32 °FPassing clouds.No wind93%30.15 "Hg15 mi
3:00 AM34 °FPassing clouds.5 mph93%30.15 "Hg15 mi
2:00 AM36 °FPassing clouds.5 mph93%30.14 "Hg15 mi
1:00 AM36 °FOvercast.5 mph93%30.14 "Hg15 mi
12:00 AM36 °FOvercast.7 mph93%30.13 "Hg15 mi
11:00 PM
Mon, Oct 5
36 °FPassing clouds.7 mph93%30.12 "Hg15 mi
10:00 PM36 °FOvercast.8 mph93%30.11 "Hg15 mi
9:00 PM36 °FPassing clouds.9 mph93%30.10 "Hg15 mi
8:00 PM37 °FSprinkles. Passing clouds.10 mph87%30.09 "Hg15 mi
7:00 PM39 °FSprinkles. Partly sunny.15 mph81%30.07 "Hg15 mi
6:00 PM39 °FSprinkles. Partly sunny.13 mph87%30.05 "Hg15 mi
5:00 PM39 °FSprinkles. Partly sunny.18 mph93%30.02 "Hg15 mi
4:00 PM41 °FPartly sunny.17 mph81%29.99 "Hg15 mi
3:00 PM41 °FPartly sunny.8 mph93%29.96 "Hg15 mi
2:00 PM39 °FLight rain. Overcast.13 mph93%29.93 "Hg12 mi
1:00 PM39 °FLight rain. Overcast.16 mph87%29.92 "Hg15 mi
12:00 PM37 °FLight rain. Overcast.12 mph87%29.91 "Hg12 mi
11:00 AM37 °FOvercast.10 mph81%29.90 "Hg15 mi
Weather by CustomWeather, © 2015

See weather overviewHow to use our weather pages